Simultaneous Nadir Overpasses (SNOs) Predictions

Prediction of SNOs between TERRA and METOP-C Satellite Orbit:

Table of predicted SNOs for the next 14.0 days since TLE Epoch: 3/11/2023
Index Date (TERRA) Time (TERRA) Lat,Lon (TERRA) SZA (TERRA ) Date (METOP-C) Time (METOP-C) Lat,Lon (METOP-C) SZA (METOP-C ) Distance(km) Time Diff (sec)
1 03/13/2023 03:08:44 80.90, 167.33 85.31 03/13/2023 03:08:08 80.89, 167.22 85.28 2.00 36
2 03/13/2023 03:58:06 -80.94, -24.53 94.64 03/13/2023 03:58:47 -80.95, -24.36 94.60 3.13 41
3 03/15/2023 19:19:58 80.90, -75.47 84.28 03/15/2023 19:19:44 80.90, -75.45 84.27 0.33 14
4 03/15/2023 20:09:20 -80.94, 92.69 95.67 03/15/2023 20:10:24 -80.94, 92.60 95.65 1.65 64
5 03/18/2023 10:41:51 -80.86,-126.49 96.84 03/18/2023 10:40:43 -80.86,-126.48 96.86 0.45 68
6 03/18/2023 11:31:10 80.93, 42.00 83.28 03/18/2023 11:31:19 80.93, 42.11 83.30 1.90 9
7 03/21/2023 02:53:01 -80.88, -9.08 97.84 03/21/2023 02:52:17 -80.88, -9.07 97.85 0.35 44
8 03/21/2023 03:42:21 80.92, 159.04 82.22 03/21/2023 03:42:54 80.92, 159.18 82.26 2.61 33
9 03/23/2023 19:04:11 -80.89, 108.24 98.86 03/23/2023 19:03:52 -80.89, 108.22 98.86 0.40 19



Historial Predications of SNOs between TERRA and METOP-C
